Theta_e
340 342 344 343 339 335 333 330 332 334 338 343 341 340 339 337 336 336 337 348 346 345 339 336 334 332 331 331 332 333 334 333 333 332 331 331 330 329 329 328 327 330 328
342 340 343 343 336 333 333 331 333 339 342 342 340 339 337 338 335 336 336 340 345 343 341 336 332 328 330 331 331 331 329 328 328 327 327 326 326 326 325 327 328 329 329
345 343 341 338 336 333 333 337 347 346 343 342 338 338 337 335 335 335 335 334 339 343 341 334 329 328 330 330 328 327 326 325 324 324 323 323 323 325 326 327 326 326 326
347 343 341 336 336 335 339 344 344 342 339 341 337 336 336 335 334 334 333 333 331 332 338 335 330 330 329 327 327 325 324 323 323 322 321 324 325 324 323 324 323 324 324
349 345 338 335 335 340 340 341 343 341 341 336 336 337 335 334 334 333 330 328 326 329 326 336 336 331 328 326 325 324 325 323 322 322 321 323 323 322 321 322 322 323 323
348 343 337 334 338 339 342 343 339 340 338 337 337 335 332 333 334 330 328 328 325 323 324 324 327 326 328 327 323 325 323 322 322 322 321 322 322 321 321 322 323 323 323
346 341 337 336 341 340 340 342 340 336 338 335 330 330 332 332 329 329 325 325 324 324 322 324 320 321 322 327 324 323 321 321 322 322 321 320 320 321 321 322 321 321 321
345 341 337 343 341 341 343 340 338 338 336 333 327 325 322 326 328 329 326 324 321 322 324 322 319 318 316 314 315 322 319 321 323 322 320 319 319 319 320 319 319 320 320
345 343 338 345 343 342 341 342 340 338 331 330 329 324 316 314 317 325 324 322 321 322 321 317 317 317 313 311 314 316 318 320 322 321 319 318 318 317 317 316 316 317 316
344 340 338 346 342 344 344 341 342 339 333 326 327 325 322 319 313 312 317 321 317 311 313 314 312 314 311 310 317 319 319 319 318 318 318 317 317 317 316 315 315 314 315
342 339 338 346 342 344 344 343 338 337 333 329 324 323 321 320 315 313 308 309 305 306 306 310 309 310 312 311 310 314 319 318 317 316 316 316 316 316 315 314 314 314 315
338 337 338 346 342 342 341 335 330 326 325 322 318 316 313 311 308 306 304 301 299 302 307 310 310 310 310 309 315 318 320 320 319 316 316 316 316 315 314 314 314 313 313
336 335 338 342 341 338 334 331 327 322 320 318 316 312 310 308 306 304 301 299 298 302 305 308 308 309 311 308 309 317 317 318 317 317 317 316 314 313 313 312 312 312 312
337 337 341 340 336 333 329 326 323 320 317 314 313 309 308 306 305 303 302 301 299 300 302 303 307 309 307 307 313 317 309 315 315 316 314 313 312 312 313 313 311 311 310
338 339 339 333 332 328 326 322 320 316 312 311 310 308 308 309 308 307 307 305 301 299 300 301 302 307 307 307 312 307 306 312 313 312 314 313 310 309 309 310 311 311 310
340 338 332 330 328 324 322 320 315 312 309 310 309 309 309 309 307 307 307 306 304 300 296 302 305 306 306 307 310 306 305 308 309 310 311 310 308 307 308 309 310 311 311
337 332 329 326 322 319 315 312 310 309 309 309 309 309 305 306 304 305 305 305 303 302 299 301 302 304 300 300 301 301 302 301 302 306 307 308 306 305 306 307 307 307 309
331 329 324 320 317 314 310 308 307 307 307 305 304 304 303 304 302 303 302 301 301 301 300 298 300 300 299 299 298 298 299 301 299 303 305 305 303 304 305 307 306 305 307
324 322 318 314 311 309 307 307 308 305 303 302 301 300 300 300 299 299 299 300 299 300 298 295 295 297 296 297 297 298 297 297 298 302 303 302 302 302 304 306 306 305 305
319 316 313 310 308 307 307 306 303 301 301 300 300 299 299 297 295 296 299 298 299 296 295 295 293 293 294 297 295 294 294 296 294 297 299 299 300 302 303 303 304 305 304
313 311 308 306 306 306 305 303 301 300 299 298 298 298 297 301 305 302 297 295 294 294 293 293 292 292 293 295 293 294 293 294 294 292 294 294 295 295 297 300 301 303 304
308 307 307 304 303 303 302 304 303 302 302 298 296 294 294 296 297 300 303 307 299 293 292 292 292 291 292 293 294 293 292 291 289 294 293 292 295 294 295 297 300 301 303
306 304 303 303 302 303 301 301 302 299 298 297 294 292 291 294 294 294 299 303 303 302 300 294 290 294 292 293 293 292 291 291 290 293 293 291 294 293 296 297 299 300 301
302 301 302 303 302 301 298 297 297 295 294 292 290 290 289 289 293 294 294 294 294 294 294 297 294 293 292 294 294 293 293 293 293 294 294 289 293 293 296 295 298 299 300
300 301 302 301 299 298 296 295 293 291 289 288 290 290 289 288 293 293 293 291 291 292 298 301 299 298 296 296 297 294 292 290 289 291 293 291 292 292 294 293 294 300 300
299 300 297 296 298 296 297 296 294 291 288 288 287 288 294 291 292 292 288 289 289 289 291 294 294 294 294 296 298 295 294 290 290 289 293 292 292 292 290 292 297 300 301
Wind_Speed
7 7 8 7 7 5 6 6 6 6 6 8 4 6 6 6 8 4 4 14 11 9 7 6 4 4 6 8 8 11 12 13 13 12 13 13 14 15 17 18 18 18 13
6 8 8 9 7 7 7 8 8 6 6 4 5 6 4 4 6 7 5 6 10 8 6 6 5 4 6 7 9 10 11 12 13 14 15 16 17 17 18 19 17 16 15
8 11 9 6 9 6 8 5 4 4 4 3 5 4 3 5 5 7 5 4 6 8 7 7 5 5 7 8 7 9 10 11 13 14 16 15 16 16 17 17 18 17 16
8 7 7 5 6 4 5 4 3 3 3 3 2 2 4 4 5 5 6 5 4 4 7 10 7 7 8 7 7 7 9 10 12 15 17 17 16 17 18 19 18 18 17
8 6 5 5 5 2 4 3 2 3 2 1 2 3 3 3 4 5 6 6 6 6 4 10 9 10 9 8 6 6 10 9 12 15 17 16 15 17 18 18 19 18 18
9 6 5 6 4 4 3 2 3 2 3 3 3 2 2 2 3 4 5 3 5 5 5 5 5 6 11 10 4 10 7 9 12 16 19 17 17 19 18 18 18 18 18
12 9 5 5 5 5 5 6 4 4 4 1 3 4 3 2 4 3 3 3 5 4 2 6 3 3 3 11 7 7 6 8 13 17 19 16 18 18 19 19 18 18 18
12 10 8 6 7 4 6 5 6 2 2 1 3 2 1 4 3 1 2 3 2 1 2 5 6 6 5 3 4 7 6 10 15 19 16 15 16 18 17 19 19 20 20
13 13 10 7 7 6 5 5 5 6 3 1 1 4 2 2 2 3 2 2 1 3 4 5 5 6 5 4 5 7 8 12 17 17 17 18 19 18 19 19 20 19 20
14 12 12 8 8 5 6 5 5 4 5 4 2 2 3 4 3 1 3 3 4 4 4 3 3 5 4 5 8 8 10 14 15 15 16 17 16 18 20 19 20 19 20
13 12 11 7 8 6 6 7 6 6 3 4 3 2 4 4 5 3 2 4 4 4 3 4 4 4 6 4 3 3 11 13 13 14 15 16 16 17 18 19 19 19 18
6 9 11 7 6 7 9 8 8 8 7 6 5 7 4 3 1 3 2 1 1 4 4 4 5 4 3 2 5 9 10 11 13 12 17 18 17 16 17 18 19 18 17
6 8 8 7 8 10 11 11 11 9 7 6 7 6 6 4 3 3 4 1 0 3 2 1 3 2 1 2 3 10 9 10 13 15 16 15 16 15 17 17 17 16 16
10 9 8 11 12 14 12 12 10 8 9 8 10 8 6 4 4 3 3 3 2 2 2 3 1 3 3 3 8 8 5 12 14 11 11 14 16 18 19 18 16 16 15
12 11 14 14 13 14 14 13 10 10 10 8 8 8 6 4 5 4 4 2 4 1 2 4 3 6 5 5 9 6 6 18 18 19 14 17 12 16 18 19 19 19 16
17 17 17 16 15 15 14 14 11 10 12 8 7 9 7 4 5 5 4 3 4 2 1 2 3 5 10 9 15 9 11 19 18 21 20 23 17 21 18 19 18 19 16
19 20 19 17 18 14 14 13 12 12 13 12 9 9 9 7 5 4 3 4 4 2 1 3 2 6 7 11 10 8 10 10 10 23 25 19 22 22 20 16 15 18 20
21 20 19 19 18 15 14 14 14 12 12 11 10 10 9 7 6 5 3 5 2 3 3 4 3 5 6 11 8 10 10 10 10 18 23 23 23 22 21 18 13 16 11
24 18 19 19 18 15 14 12 13 13 12 12 10 10 8 6 4 3 2 4 2 5 5 3 3 4 3 5 9 9 10 11 9 20 17 24 23 22 22 19 12 14 11
19 17 17 17 18 15 14 14 14 13 13 12 10 9 8 6 5 5 4 4 6 5 4 3 3 3 3 5 2 8 12 10 11 10 11 18 20 22 21 21 18 16 16
17 21 19 17 16 15 11 14 13 13 14 13 10 10 7 8 13 6 1 4 3 2 3 3 3 2 3 7 10 8 8 9 12 3 11 11 11 10 11 14 14 19 15
18 21 18 18 14 11 17 18 15 12 11 11 10 7 7 10 7 12 14 6 6 2 3 3 2 3 5 5 7 8 8 8 6 4 12 14 9 9 9 9 19 20 19
21 19 18 18 16 15 13 17 20 13 13 12 8 7 7 6 9 7 9 10 4 3 1 1 2 4 4 4 6 10 10 9 8 10 10 10 8 10 10 10 19 21 19
20 18 18 18 15 12 20 22 22 16 12 10 7 6 6 6 8 6 7 7 7 6 6 5 3 3 2 4 4 6 8 10 9 7 6 7 9 10 12 9 16 19 21
20 15 14 16 15 13 18 20 19 13 11 9 6 6 6 6 11 14 7 9 10 9 8 12 10 11 8 5 9 8 7 8 8 8 2 5 6 11 8 8 9 19 18
21 15 14 12 13 13 16 17 14 9 10 6 5 5 9 8 8 10 7 6 8 6 5 5 8 10 8 9 11 8 7 8 8 4 3 6 7 7 7 4 11 10 11
Wind_Direction
187 176 184 189 193 197 201 224 216 224 237 249 136 107 83 78 140 146 161 179 178 170 162 144 103 57 36 31 30 29 27 21 16 10 360 348 338 333 328 325 323 321 307
193 190 189 192 193 201 200 216 212 215 205 113 123 113 121 110 107 153 161 176 165 169 158 128 118 90 60 61 44 34 22 15 3 356 348 339 332 329 328 323 322 337 328
197 200 195 178 204 201 209 193 180 163 121 146 156 161 119 132 130 145 153 144 157 173 153 151 160 108 93 80 54 42 28 15 6 2 346 333 327 334 327 334 331 329 326
194 201 189 188 191 183 189 159 157 145 166 156 136 155 141 137 148 98 106 144 166 167 177 174 179 129 117 100 74 40 21 20 12 352 339 342 343 339 332 328 324 319 318
187 179 181 195 180 195 196 159 161 125 124 166 177 123 172 135 126 126 129 141 159 162 178 195 167 150 130 125 96 18 41 25 359 350 340 339 336 335 333 328 322 321 322
175 158 173 187 172 168 186 132 132 111 131 118 82 105 248 180 143 140 149 132 157 166 163 181 158 152 152 138 167 55 47 13 352 345 338 341 339 334 326 319 321 323 322
175 160 165 177 176 180 165 146 113 108 51 113 68 347 4 101 128 141 152 136 154 166 83 139 137 146 145 124 73 66 32 358 348 343 340 352 340 334 332 333 329 326 322
169 169 165 175 179 150 139 147 130 109 95 351 138 125 14 352 326 204 112 171 170 119 67 110 130 129 115 117 94 98 34 358 342 348 351 341 333 329 332 331 329 326 323
170 172 173 162 158 142 151 146 130 120 130 298 114 142 69 196 339 352 8 63 119 17 47 110 117 124 126 106 79 71 30 348 345 350 341 334 331 333 333 331 326 326 323
169 169 174 167 162 148 151 150 142 133 129 163 51 54 97 138 140 20 344 55 55 32 35 62 76 102 103 64 95 51 8 350 347 338 334 329 330 332 334 334 328 325 326
163 166 161 162 170 153 157 140 120 107 121 123 152 149 69 65 52 93 302 335 1 355 32 104 74 73 61 89 90 9 357 349 338 331 321 320 319 325 331 330 330 329 328
150 176 162 162 140 125 123 107 101 94 98 94 89 74 93 122 76 87 93 349 220 301 29 65 69 58 63 55 8 359 360 344 334 313 314 322 318 320 325 331 331 327 334
162 193 154 138 126 124 115 111 101 94 85 87 92 89 79 74 103 104 93 297 105 293 78 19 89 84 31 355 345 343 357 336 323 318 331 327 328 317 316 320 324 323 324
168 175 138 124 126 120 111 108 102 94 89 84 86 84 86 72 72 89 121 123 332 322 29 331 315 342 314 317 342 9 325 349 337 356 351 337 332 326 312 309 311 313 311
166 167 129 128 124 117 114 109 105 101 89 79 75 77 75 60 56 52 61 82 147 33 281 331 331 309 339 4 3 357 4 352 354 348 348 345 359 345 339 323 312 298 295
168 139 131 129 121 115 113 112 109 108 102 92 89 84 72 71 54 40 38 18 51 158 227 280 333 319 26 22 15 15 355 346 345 342 345 339 349 344 343 340 339 332 298
143 140 134 126 119 113 110 107 103 105 104 107 95 90 75 63 61 47 33 50 359 348 109 327 301 3 34 13 4 347 351 346 341 338 337 333 344 342 329 329 331 333 321
137 133 128 120 117 113 115 116 116 109 104 94 88 82 79 72 44 32 34 67 343 6 66 12 336 16 30 3 348 347 344 344 337 333 331 345 339 329 324 318 312 333 357
118 127 123 119 112 116 112 111 109 105 102 92 90 89 83 74 59 50 36 65 5 30 39 37 360 6 357 339 344 350 343 336 333 330 329 332 333 331 327 331 327 328 313
128 121 109 111 107 109 107 105 104 102 97 90 88 87 75 70 61 45 37 6 39 36 29 32 28 328 292 346 357 348 344 342 328 320 329 332 324 325 324 333 332 335 329
117 109 107 98 105 104 108 111 109 108 105 102 90 78 60 57 47 51 10 12 48 38 36 30 354 300 336 4 4 346 340 319 317 310 334 326 322 318 325 323 320 325 338
102 107 108 105 107 106 105 113 112 104 99 99 100 97 74 43 18 14 15 46 157 108 30 28 311 341 339 14 354 338 332 332 348 343 333 314 319 313 315 318 318 323 325
114 107 103 107 103 104 105 101 95 90 87 80 70 65 64 40 26 21 19 53 85 339 282 205 312 345 10 347 345 344 333 329 317 309 318 302 319 317 320 313 313 313 314
98 101 103 103 104 107 101 95 92 86 82 79 82 86 88 57 36 19 34 16 11 351 5 18 116 15 55 4 313 322 316 319 310 311 328 291 316 313 315 304 298 303 316
98 95 102 108 108 102 101 95 95 93 90 83 74 62 65 69 30 17 24 18 10 1 22 79 41 18 5 337 335 338 342 333 323 318 282 297 311 316 305 295 301 317 313
106 105 96 91 97 103 102 98 101 106 98 95 85 74 59 48 39 26 30 18 18 350 24 36 37 30 13 349 344 349 338 323 319 300 272 316 320 340 317 292 321 325 329